MOZ.5/SAFIR/RUBIN 5/SL-8 - Orbit

View from above orbital plane
View from above orbital plane
View from above satellite
View from above satellite

Ground track
Ground track

The orbit data is extracted from the following two-line orbital elements,

1 28898U 05043G   13142.65648633  .00000296  00000-0  72013-4 0  5225
2 28898 097.8561 348.6258 0020513 180.0013 220.3592 14.59088098402970
Epoch (UTC): 22 May 2013 15:45:20
Eccentricity: 0.0020513
inclination: 97.8561°
perigee height: 681 km
apogee height: 710 km
right ascension of ascending node: 348.6258°
argument of perigee: 180.0013°
revolutions per day: 14.59088098
mean anomaly at epoch: 220.3592°
orbit number at epoch: 40297

The dashed part of the orbit path shows where the satellite is in the earth's shadow,  

Developed and maintained by Chris Peat, Heavens-Above GmbH. Please read the updated FAQ before sending e-mail. Imprint. DLR